Location: Unspecified
(64.9000°N, 0.0000°E)
Time: 10:29:45
(UTC+00:00)

Transit 2A Rocket - Pass Details

Date: 23 June 2019
Orbit: 588 x 915 km, 66.7° (Epoch: 16 July)

Event Time Altitude Azimuth Distance (km) Brightness Sun altitude
Rises 14:57:40 0° 281° (W) 3,490 8.9 39.8°
Reaches altitude 10° 15:00:16 10° 283° (WNW) 2,515 8.3 39.6°
Maximum altitude 15:06:06 77° 10° (N) 843 5.8 39.1°
Drops below altitude 10° 15:11:26 10° 97° (E) 2,303 7.2 38.6°
Sets 15:13:43 0° 99° (E) 3,176 7.8 38.4°
